Location: Boulin
(43.2500°N, 0.1333°E)
Time: 21:54:10
(UTC+00:00)

Cosmos 1538 Rocket - Pass Details

Date: 11 December 2025
Orbit: 747 x 789 km, 74.0° (Epoch: 21 January)

Event Time Altitude Azimuth Distance (km) Brightness Sun altitude
Rises 17:53:15 0° 343° (NNW) 3,252 7.3 -15.6°
Reaches altitude 10° 17:55:41 10° 348° (NNW) 2,327 6.5 -16.0°
Maximum altitude 18:00:53 55° 66° (ENE) 931 4.1 -17.0°
Drops below altitude 10° 18:06:06 10° 144° (SE) 2,335 6.3 -17.9°
Sets 18:08:32 0° 149° (SSE) 3,263 7.1 -18.3°
